Location: *
(49.9853°N, 3.5569°E)
Time: 05:00:51
(UTC+00:00)

Cosmos 405 Rocket - Pass Details

Date: 17 December 2019
Orbit: 490 x 554 km, 81.3° (Epoch: 20 January)

Event Time Altitude Azimuth Distance (km) Brightness Sun altitude
Rises 06:27:49 0° 168° (SSE) 2,610 6.8 -10.7°
Reaches altitude 10° 06:30:05 10° 158° (SSE) 1,719 6.0 -10.3°
Maximum altitude 06:33:29 33° 94° (E) 869 4.6 -9.9°
Drops below altitude 10° 06:36:51 10° 30° (NNE) 1,708 5.4 -9.4°
Sets 06:39:06 0° 20° (NNE) 2,590 6.2 -9.0°
